カタログに戻る

STARLINK-34079

運用中通信VLEO
NORAD 64038·PAYLOAD·🇺🇸 United States

打ち上げ May 16, 2025 から Vandenberg Space Force Base

Loading…

次のパス (今後24時間)

TLE

最新Source: CelesTrak SupGP

元期: Sep 15, 2026, 02:10 UTC

1 64038C 25102S   26258.09076389  .00106650  00000+0  37166-2 0  2586
2 64038  70.0009 355.2080 0003160 266.4395 148.4457 15.29469636    12

AllMySatでSTARLINK-34079をリアルタイム追跡

Download on the App Store